Date String (YYYY-MM-DD hh:mm:ss) UTC,Instrument flags,Ambient pressure (hPa),Sample flow (lpm),Bypass flow (lpm),Sample temperature (°C),Ambient temperature (°C),ASC tube jacket temperature (°C),LED temperature (°C),Box temperature (°C),Sample RH (%),Span deviation,Mass concentration (μg/m³),Mass concentration (μg/m³),Mass concentration (μg/m³)
DateTimeUTC,F1_M11,P_M11,Q1_M11,Q2_M11,T1_M11,T2_M11,T3_M11,T4_M11,T5_M11,U1_M11,ZSPAN_M11,X2_M11,X0_M11,X1_M11
2022-07-07 01:00:00,,0829.1,4.99,0.00,32.0,29.1,00.0,39.9,32.5,34.1,0000.0,0003.71,0008.05,0002.68
2022-07-07 01:01:00,,0828.7,4.99,0.00,31.9,29.0,00.0,39.9,32.5,35.1,0000.0,0003.66,0007.78,0002.74
2022-07-07 01:02:00,,0828.8,5.00,0.00,32.0,28.3,00.0,39.9,32.5,35.6,0000.0,0003.69,0007.69,0002.85
2022-07-07 01:03:00,,0828.8,5.00,0.00,32.3,27.8,00.0,39.8,32.6,34.9,0000.0,0003.73,0007.67,0002.95
2022-07-07 01:04:00,,0829.2,4.99,0.00,32.4,27.6,00.0,39.9,32.5,34.9,0000.0,0003.77,0007.73,0003.02
2022-07-07 01:05:00,,0828.7,5.00,0.00,32.4,27.7,00.0,39.9,32.4,35.9,0000.0,0003.79,0007.77,0003.07
2022-07-07 01:06:00,,0828.8,5.00,0.00,32.6,27.8,00.0,39.9,32.5,35.5,0000.0,0003.79,0007.72,0003.11
2022-07-07 01:07:00,,0828.9,4.99,0.00,32.9,28.0,00.0,40.0,32.7,35.0,0000.0,0003.81,0007.69,0003.14
2022-07-07 01:08:00,,0829.0,5.01,0.00,33.2,28.1,00.0,40.1,32.8,34.6,0000.0,0003.86,0007.80,0003.18
2022-07-07 01:09:00,,0828.7,5.00,0.00,33.3,28.3,00.0,40.1,32.7,34.6,0000.0,0003.96,0008.03,0003.20
2022-07-07 01:10:00,,0828.8,5.00,0.00,33.3,28.4,00.0,40.2,32.7,34.9,0000.0,0004.02,0007.89,0003.22
2022-07-07 01:11:00,,0828.9,5.00,0.00,33.3,28.5,00.0,40.4,32.7,34.9,0000.0,0004.07,0007.76,0003.24
2022-07-07 01:12:00,,0829.0,5.00,0.00,33.4,28.6,00.0,40.5,32.8,35.0,0000.0,0004.15,0008.77,0003.25
2022-07-07 01:13:00,,0829.1,4.99,0.00,33.5,28.7,00.0,40.5,32.9,35.0,0000.0,0004.22,0009.11,0003.26
2022-07-07 01:14:00,,0828.9,5.00,0.00,33.6,28.8,00.0,40.6,33.0,34.2,0000.0,0004.26,0009.30,0003.25
2022-07-07 01:15:00,,0828.7,5.01,0.00,33.7,28.9,00.0,40.7,33.0,34.2,0000.0,0004.29,0009.38,0003.26
2022-07-07 01:16:00,,0828.7,5.01,0.00,33.7,29.0,00.0,40.8,33.0,34.4,0000.0,0004.39,0009.65,0003.27
2022-07-07 01:17:00,,0828.8,5.01,0.00,33.6,29.1,00.0,40.9,33.0,34.3,0000.0,0004.42,0009.93,0003.30
2022-07-07 01:18:00,,0829.1,5.00,0.00,33.6,29.1,00.0,40.9,33.0,34.6,0000.0,0004.44,0010.24,0003.32
2022-07-07 01:19:00,,0829.0,4.99,0.00,33.5,29.2,00.0,41.0,33.0,34.9,0000.0,0004.52,0010.45,0003.34
2022-07-07 01:20:00,,0829.0,5.00,0.00,33.5,29.3,00.0,41.0,33.1,34.3,0000.0,0004.53,0010.45,0003.35
2022-07-07 01:21:00,,0828.6,5.00,0.00,33.4,29.3,00.0,41.1,33.1,34.2,0000.0,0004.57,0010.58,0003.38
2022-07-07 01:22:00,,0828.9,4.99,0.00,33.4,28.7,00.0,41.0,33.1,34.1,0000.0,0004.58,0010.79,0003.40
2022-07-07 01:23:00,,0828.8,5.00,0.00,33.3,27.9,00.0,41.0,32.9,34.3,0000.0,0004.60,0010.50,0003.43
2022-07-07 01:24:00,,0828.9,4.98,0.00,33.2,27.5,00.0,40.9,32.8,34.8,0000.0,0004.62,0010.58,0003.46
2022-07-07 01:25:00,,0828.5,5.00,0.00,33.1,27.5,00.0,40.9,32.7,35.4,0000.0,0004.64,0010.76,0003.49
2022-07-07 01:26:00,,0828.5,5.01,0.00,33.1,27.5,00.0,40.9,32.7,35.3,0000.0,0004.62,0010.97,0003.51
2022-07-07 01:27:00,,0828.6,5.01,0.00,33.3,27.7,00.0,40.9,32.9,34.9,0000.0,0004.59,0011.06,0003.52
2022-07-07 01:28:00,,0828.9,4.99,0.00,33.4,27.9,00.0,40.8,32.9,34.2,0000.0,0004.55,0010.72,0003.49
2022-07-07 01:29:00,,0829.0,5.00,0.00,33.5,28.1,00.0,40.8,32.9,33.7,0000.0,0004.51,0010.39,0003.46
2022-07-07 01:30:00,,0828.6,5.00,0.00,33.5,28.2,00.0,40.9,32.8,33.7,0000.0,0004.44,0010.18,0003.45
2022-07-07 01:31:00,,0828.8,5.00,0.00,33.4,28.4,00.0,40.9,32.8,33.9,0000.0,0004.38,0009.98,0003.44
2022-07-07 01:32:00,,0829.0,5.00,0.00,33.3,28.5,00.0,40.9,32.8,34.0,0000.0,0004.31,0010.09,0003.43
2022-07-07 01:33:00,,0829.2,5.00,0.00,33.3,28.7,00.0,41.0,32.8,34.6,0000.0,0004.27,0010.19,0003.40
2022-07-07 01:34:00,,0829.2,5.01,0.00,33.2,28.8,00.0,41.0,32.9,34.9,0000.0,0004.24,0009.68,0003.39
2022-07-07 01:35:00,,0829.1,5.00,0.00,33.1,28.9,00.0,41.0,32.9,34.7,0000.0,0004.20,0009.37,0003.38
2022-07-07 01:36:00,,0828.7,5.01,0.00,33.1,29.0,00.0,41.0,32.9,34.5,0000.0,0004.22,0009.27,0003.37
2022-07-07 01:37:00,,0828.9,5.00,0.00,33.0,29.1,00.0,41.0,32.9,34.7,0000.0,0004.30,0009.66,0003.39
2022-07-07 01:38:00,,0829.3,5.00,0.00,32.9,29.1,00.0,41.0,32.9,34.6,0000.0,0004.29,0009.33,0003.41
2022-07-07 01:39:00,,0829.0,5.00,0.00,32.9,29.2,00.0,41.0,33.0,34.8,0000.0,0004.32,0009.36,0003.45
2022-07-07 01:40:00,,0829.2,5.00,0.00,32.8,29.3,00.0,41.0,33.0,35.1,0000.0,0004.39,0009.52,0003.50
2022-07-07 01:41:00,,0829.1,5.01,0.00,32.9,29.3,00.0,41.0,33.1,35.0,0000.0,0004.41,0009.81,0003.52
2022-07-07 01:42:00,,0829.3,5.00,0.00,33.1,29.0,00.0,40.9,33.2,34.1,0000.0,0004.41,0009.94,0003.50
2022-07-07 01:43:00,,0829.3,5.01,0.00,33.2,28.1,00.0,40.8,33.0,33.7,0000.0,0004.44,0009.74,0003.48
2022-07-07 01:44:00,,0829.3,4.99,0.00,33.1,27.5,00.0,40.8,32.9,33.6,0000.0,0004.48,0009.91,0003.46
2022-07-07 01:45:00,,0829.2,5.00,0.00,33.0,27.3,00.0,40.8,32.7,33.7,0000.0,0004.43,0010.26,0003.44
2022-07-07 01:46:00,,0829.1,5.02,0.00,32.8,27.4,00.0,40.8,32.6,34.2,0000.0,0004.42,0010.62,0003.40
2022-07-07 01:47:00,,0828.8,5.00,0.00,32.7,27.6,00.0,40.7,32.5,34.4,0000.0,0004.34,0010.45,0003.36
2022-07-07 01:48:00,,0828.9,4.99,0.00,32.5,27.7,00.0,40.7,32.5,34.7,0000.0,0004.22,0009.74,0003.30
2022-07-07 01:49:00,,0828.9,5.01,0.00,32.4,27.9,00.0,40.7,32.5,35.0,0000.0,0004.17,0009.78,0003.25
2022-07-07 01:50:00,,0828.9,4.99,0.00,32.4,28.1,00.0,40.7,32.5,35.2,0000.0,0004.13,0009.76,0003.20
2022-07-07 01:51:00,,0829.0,4.99,0.00,32.6,28.3,00.0,40.6,32.7,34.9,0000.0,0004.08,0009.69,0003.14
2022-07-07 01:52:00,,0829.0,5.00,0.00,32.7,28.4,00.0,40.6,32.8,34.6,0000.0,0004.03,0009.39,0003.06
2022-07-07 01:53:00,,0829.1,5.00,0.00,32.8,28.6,00.0,40.6,32.8,34.4,0000.0,0003.99,0009.19,0003.04
2022-07-07 01:54:00,,0829.1,5.00,0.00,32.8,28.7,00.0,40.6,32.8,34.3,0000.0,0003.94,0009.03,0003.01
2022-07-07 01:55:00,,0829.1,4.99,0.00,32.7,28.8,00.0,40.6,32.8,34.5,0000.0,0003.87,0008.90,0002.98
2022-07-07 01:56:00,,0829.1,4.99,0.00,32.7,28.9,00.0,40.6,32.8,34.7,0000.0,0003.90,0008.93,0002.98
2022-07-07 01:57:00,,0829.1,5.00,0.00,32.6,28.9,00.0,40.7,32.8,35.0,0000.0,0003.94,0008.71,0003.01
2022-07-07 01:58:00,,0829.2,5.01,0.00,32.7,29.0,00.0,40.7,32.9,34.9,0000.0,0003.96,0009.20,0003.01
2022-07-07 01:59:00,,0829.2,5.00,0.00,32.8,29.1,00.0,40.7,32.9,34.7,0000.0,0003.99,0009.94,0003.00
